STARLINK-32733, 62477

Orbit data source: Space-Track

STARLINK-32733, 62477 is a payload satellite owned by SpaceX/Seattle (US) in LEO that was launched on Tue, 31 Dec 2024 UTC via an FALCON 9 launch vehicle from the Air Force Eastern Test Range (AFETR). Payload-class satellites include a variety of spacecraft equipped with specific instruments for various scientific and technological missions. These include communications satellites like Starlink; space stations such as the ISS; scientific satellites like the Hubble; Earth observation satellites from companies like Planet Labs, Umbra, and HawkEye 360; GPS; miniature CubeSats for education and research; and military/defense satellites.

Loading next visibility...
Identifier
62477, 2024-254R
Orbit
LEO
Country
Flag of USUS
Related business
Manufacturer
SpaceX/Seattle
Mission
Operational Commercial Communications
Bus & Motor
STARLINK V2M, Unknown motor
Mass
730 kg wet, ~700 kg dry
Launch date (UTC)
2024-12-31 (2 years ago)
Launch vehicle
FALCON 9
Launch site
Air Force Eastern Test Range (AFETR)
Object type
Payload
Rocket body
Debris
Shape & HBR
Box + 2 Pan, 17.7 m
Radar Cross Section
33.884 m², Large (>1 m²)

Expand to show TLE details & history
Last TLE update: 1 day ago

TLE from 1 day ago
0 STARLINK-32733
1 62477U 24254R   26257.43589135  .00014109  00000-0  52108-3 0  9997
2 62477  43.0020  30.0450 0002054 275.2994  84.7623 15.27590107 96527
Epoch: 2026-09-14T10:27Z
TLE epoch observation values (Epoch: 2026-09-14T10:27:41.012Z)
Latitude
-0.00004°
Longitude
-120.29215°
Altitude
482.666 km
Speed
7.626 km/s
True Right ascension
02h 00m 10s
True Declination
0° 00' 00"
Sunlit
Object was in full shadow at epoch
Visualization orbit readout
Latitude
Unknown
Longitude
Unknown
Altitude
Unknown
Speed
Unknown
Apparent Right ascension
Unknown
Apparent Declination
Unknown
Sunlit
N/A
Visualization observer readout
Local Sidereal Time
04:45:05
Azimuth
Unknown
Elevation
Unknown
Doppler factor
Unknown
Orbital elements
Apogee altitude
486.373 km
Perigee altitude
483.554 km
Semi-major axis
6,863.101 km
Eccentricity
0.00021
Inclination
43.002°
RAAN
30.045°
Arg. of periapsis
275.2994°
True anomaly
84.78574°
Mean anomaly
84.7623°
Eccentric anomaly
84.77402°
Mean motion
3.81736 °/min
Orbital period
94.31 mins
BSTAR
0.00052108
Loading maneuver chart data...
Computing Atmospheric mass density...
Loading historical data...
Loading historical data...
Loading historical data...
Loading historical data...
Loading historical data...
Loading historical data...
Loading historical data...

Documentation

Showing up to 5 results
|